Powrót do katalogu

COSMOS 1275 DEB

AktywnyPO
NORAD 12672·DEBRIS·🇷🇺 Russia

Wystrzelony Jun 4, 1981 z Plesetsk Cosmodrome

Loading…

Następne Przeloty (najbliższe 24 godziny)

TLE

ŚwieżeSource: Space-Track

Epoka: Sep 14, 2026, 13:13 UTC

1 12672U 81053AC  26257.55087304  .00000306  00000-0  25994-3 0  9990
2 12672  82.9395 103.0076 0027050   9.3911  19.2337 13.84148684270775

Śledź COSMOS 1275 DEB w czasie rzeczywistym z AllMySat

Download on the App Store